When you browse on this site, cookies collect data to enhance your experience and personalize the content and advertising you see.
Visit our Privacy Policy to learn more. By continuing to use the site, you agree to this use of cookies and data.
  • In Spain
  • List of Countries
  • For 7 days
  • Water Temperature
  • Weather Map
  • Weather Widgets
  • user-avatar
    Login

    Hourly Weather Tonhe

    Today, 28 May, Thursday

    Time Temperature Precipitation Wind Pressure Humidity
    00:00 +14°C° 0 mm 3 mps 748 mmHg 74%
    01:00 +14°C° 0 mm 3 mps 747 mmHg 76%
    02:00 +14°C° 0 mm 2 mps 747 mmHg 78%
    03:00 +14°C° 0 mm 2 mps 747 mmHg 79%
    04:00 +14°C° 0 mm 2 mps 747 mmHg 78%
    05:00 +14°C° 0 mm 2 mps 748 mmHg 77%
    06:00 +15°C° 0 mm 2 mps 748 mmHg 76%
    07:00 +17°C° 0 mm 2 mps 748 mmHg 65%
    08:00 +21°C° 0 mm 1 mps 748 mmHg 54%
    09:00 +23°C° 0 mm 1 mps 748 mmHg 42%
    10:00 +24°C° 0 mm 2 mps 748 mmHg 42%
    11:00 +24°C° 0 mm 2 mps 748 mmHg 42%
    12:00 +24°C° 0 mm 3 mps 748 mmHg 43%
    13:00 +22°C° 0 mm 3 mps 748 mmHg 47%
    14:00 +23°C° 0 mm 2 mps 748 mmHg 52%
    15:00 +21°C° 0 mm 2 mps 748 mmHg 57%
    16:00 +22°C° 0 mm 1 mps 748 mmHg 58%
    17:00 +22°C° 0 mm 1 mps 748 mmHg 59%
    18:00 +21°C° 0 mm 1 mps 748 mmHg 60%
    19:00 +19°C° 0 mm 1 mps 748 mmHg 66%
    20:00 +16°C° 0 mm 1 mps 749 mmHg 72%
    21:00 +15°C° 0 mm 1 mps 749 mmHg 78%
    22:00 +14°C° 0 mm 1 mps 750 mmHg 76%
    23:00 +14°C° 0 mm 1 mps 750 mmHg 75%

    Tomorrow, 29 May, Friday

    Time Temperature Precipitation Wind Pressure Humidity
    00:00 +14°C° 0 mm 2 mps 750 mmHg 74%
    01:00 +14°C° 0 mm 2 mps 751 mmHg 75%
    02:00 +14°C° 0 mm 2 mps 751 mmHg 76%
    03:00 +14°C° 0 mm 1 mps 751 mmHg 76%
    04:00 +15°C° 0 mm 1 mps 751 mmHg 76%
    05:00 +15°C° 0 mm 1 mps 751 mmHg 76%
    06:00 +15°C° 0 mm 1 mps 752 mmHg 76%
    07:00 +19°C° 0 mm 1 mps 752 mmHg 66%
    08:00 +22°C° 0 mm 1 mps 752 mmHg 57%
    09:00 +25°C° 0 mm 1 mps 753 mmHg 47%
    10:00 +25°C° 0 mm 2 mps 753 mmHg 45%
    11:00 +26°C° 0 mm 2 mps 753 mmHg 44%
    12:00 +26°C° 0 mm 2 mps 753 mmHg 43%
    13:00 +26°C° 0.1 mm 2 mps 753 mmHg 45%
    14:00 +25°C° 0.1 mm 2 mps 753 mmHg 48%
    15:00 +25°C° 0.1 mm 2 mps 753 mmHg 50%
    16:00 +24°C° 0.1 mm 2 mps 753 mmHg 55%
    17:00 +23°C° 0.1 mm 2 mps 753 mmHg 60%
    18:00 +23°C° 0.1 mm 2 mps 753 mmHg 65%
    19:00 +20°C° 0 mm 2 mps 753 mmHg 69%
    20:00 +18°C° 0 mm 2 mps 754 mmHg 74%
    21:00 +16°C° 0 mm 2 mps 754 mmHg 78%
    22:00 +16°C° 0 mm 2 mps 755 mmHg 77%
    23:00 +16°C° 0 mm 2 mps 755 mmHg 76%

    Day after tomorrow, 30 May, Saturday

    Time Temperature Precipitation Wind Pressure Humidity
    00:00 +16°C° 0 mm 2 mps 755 mmHg 75%
    01:00 +16°C° 0 mm 2 mps 755 mmHg 76%
    02:00 +16°C° 0 mm 2 mps 755 mmHg 77%
    03:00 +16°C° 0 mm 2 mps 755 mmHg 78%
    04:00 +16°C° 0 mm 2 mps 755 mmHg 78%
    05:00 +16°C° 0 mm 2 mps 755 mmHg 78%
    06:00 +17°C° 0 mm 2 mps 756 mmHg 77%
    07:00 +20°C° 0 mm 2 mps 756 mmHg 68%
    08:00 +24°C° 0 mm 2 mps 756 mmHg 58%
    09:00 +27°C° 0 mm 2 mps 756 mmHg 49%
    10:00 +28°C° 0 mm 3 mps 756 mmHg 46%
    11:00 +29°C° 0 mm 3 mps 755 mmHg 42%
    12:00 +29°C° 0 mm 4 mps 755 mmHg 39%
    13:00 +29°C° 0 mm 4 mps 755 mmHg 40%
    14:00 +29°C° 0 mm 5 mps 755 mmHg 41%
    15:00 +28°C° 0 mm 5 mps 754 mmHg 42%
    16:00 +27°C° 0 mm 5 mps 754 mmHg 48%
    17:00 +26°C° 0 mm 5 mps 754 mmHg 54%
    18:00 +25°C° 0 mm 5 mps 754 mmHg 59%
    19:00 +22°C° 0 mm 4 mps 754 mmHg 63%
    20:00 +21°C° 0 mm 4 mps 754 mmHg 67%
    21:00 +19°C° 0 mm 4 mps 754 mmHg 71%
    22:00 +19°C° 0 mm 4 mps 754 mmHg 71%
    23:00 +19°C° 0 mm 4 mps 754 mmHg 71%

    31 May, Sunday

    Time Temperature Precipitation Wind Pressure Humidity
    00:00 +18°C° 0 mm 4 mps 755 mmHg 71%
    01:00 +18°C° 0 mm 3 mps 754 mmHg 71%
    02:00 +18°C° 0 mm 3 mps 754 mmHg 71%
    03:00 +18°C° 0 mm 2 mps 754 mmHg 71%
    04:00 +18°C° 0 mm 2 mps 754 mmHg 72%
    05:00 +18°C° 0 mm 2 mps 754 mmHg 73%
    06:00 +18°C° 0 mm 2 mps 754 mmHg 73%
    07:00 +22°C° 0 mm 1 mps 754 mmHg 65%
    08:00 +25°C° 0 mm 1 mps 754 mmHg 56%
    09:00 +28°C° 0 mm 1 mps 754 mmHg 47%
    10:00 +29°C° 0 mm 1 mps 754 mmHg 44%
    11:00 +29°C° 0 mm 2 mps 753 mmHg 41%
    12:00 +30°C° 0 mm 2 mps 753 mmHg 38%
    13:00 +30°C° 0 mm 2 mps 753 mmHg 38%
    14:00 +30°C° 0 mm 3 mps 752 mmHg 38%
    15:00 +29°C° 0 mm 4 mps 752 mmHg 38%
    16:00 +29°C° 0 mm 4 mps 751 mmHg 42%
    17:00 +28°C° 0 mm 5 mps 751 mmHg 47%
    18:00 +27°C° 0 mm 5 mps 751 mmHg 51%
    19:00 +25°C° 0 mm 5 mps 751 mmHg 53%
    20:00 +22°C° 0 mm 4 mps 751 mmHg 55%
    21:00 +21°C° 0 mm 4 mps 751 mmHg 57%
    22:00 +20°C° 0 mm 3 mps 752 mmHg 63%
    23:00 +20°C° 0 mm 3 mps 752 mmHg 69%

    1 June, Monday

    Time Temperature Precipitation Wind Pressure Humidity
    00:00 +19°C° 0 mm 3 mps 752 mmHg 75%
    01:00 +19°C° 0 mm 3 mps 752 mmHg 79%
    02:00 +18°C° 0 mm 3 mps 751 mmHg 82%
    03:00 +18°C° 0 mm 2 mps 751 mmHg 86%
    04:00 +18°C° 0 mm 2 mps 751 mmHg 87%
    05:00 +19°C° 0 mm 2 mps 751 mmHg 88%
    06:00 +19°C° 0 mm 2 mps 751 mmHg 89%
    07:00 +21°C° 0 mm 2 mps 751 mmHg 80%
    08:00 +24°C° 0 mm 2 mps 751 mmHg 70%
    09:00 +26°C° 0 mm 1 mps 751 mmHg 61%
    10:00 +27°C° 0 mm 2 mps 751 mmHg 58%
    11:00 +28°C° 0 mm 2 mps 750 mmHg 55%
    12:00 +29°C° 0 mm 3 mps 750 mmHg 51%
    13:00 +29°C° 0 mm 3 mps 750 mmHg 52%
    14:00 +29°C° 0 mm 3 mps 749 mmHg 54%
    15:00 +29°C° 0 mm 3 mps 749 mmHg 55%
    16:00 +28°C° 0.1 mm 3 mps 749 mmHg 62%
    17:00 +27°C° 0.1 mm 3 mps 748 mmHg 70%
    18:00 +26°C° 0.1 mm 2 mps 748 mmHg 77%
    19:00 +24°C° 0.1 mm 2 mps 748 mmHg 83%
    20:00 +21°C° 0.1 mm 2 mps 748 mmHg 88%
    21:00 +20°C° 0.1 mm 2 mps 748 mmHg 93%
    22:00 +19°C° 0 mm 2 mps 748 mmHg 93%
    23:00 +19°C° 0 mm 3 mps 748 mmHg 94%

    2 June, Tuesday

    Time Temperature Precipitation Wind Pressure Humidity
    00:00 +19°C° 0 mm 3 mps 748 mmHg 94%
    01:00 +19°C° 0 mm 3 mps 748 mmHg 95%
    02:00 +19°C° 0 mm 3 mps 748 mmHg 95%
    03:00 +19°C° 0 mm 3 mps 747 mmHg 95%
    04:00 +19°C° 0 mm 3 mps 747 mmHg 94%
    05:00 +19°C° 0 mm 3 mps 747 mmHg 93%
    06:00 +19°C° 0 mm 3 mps 747 mmHg 93%
    07:00 +21°C° 0 mm 3 mps 747 mmHg 85%
    08:00 +24°C° 0 mm 3 mps 747 mmHg 78%
    09:00 +25°C° 0 mm 3 mps 747 mmHg 70%
    10:00 +26°C° 0.1 mm 4 mps 746 mmHg 67%
    11:00 +27°C° 0.1 mm 4 mps 746 mmHg 65%
    12:00 +28°C° 0.1 mm 5 mps 745 mmHg 62%
    13:00 +28°C° 0.1 mm 6 mps 745 mmHg 62%
    14:00 +28°C° 0.1 mm 6 mps 745 mmHg 62%
    15:00 +28°C° 0.1 mm 7 mps 744 mmHg 62%
    16:00 +27°C° 0 mm 7 mps 744 mmHg 63%
    17:00 +27°C° 0 mm 6 mps 744 mmHg 64%
    18:00 +26°C° 0 mm 6 mps 743 mmHg 65%
    19:00 +23°C° 0 mm 5 mps 744 mmHg 72%
    20:00 +22°C° 0 mm 4 mps 744 mmHg 79%
    21:00 +20°C° 0 mm 4 mps 745 mmHg 86%
    22:00 +19°C° 0 mm 4 mps 745 mmHg 87%
    23:00 +19°C° 0 mm 3 mps 745 mmHg 87%
    Show more